Location: Writing-on-Stone Provincial Park
(49.0825°N, 111.6163°W)
Time: 17:16:54
(UTC-07:00)

Amateur Radio Satellites - All Passes

Search period start: 10 December 2017 16:46
Search period end: 11 December 2017 16:46
Location: Writing-on-Stone Provincial Park, 49.0825°N, 111.6163°W

Satellite Date Start Highest point End Downlink Frequencies (MHz)
Time Altitude Azimuth
KKS-1 10 Dec 16:48:40 16:51:39 17° 91° (E) 16:54:37 437.445
SO-50 10 Dec 16:49:33 16:53:41 38° 120° (ESE) 16:57:53 436.795
AO-7 10 Dec 16:49:39 16:55:28 21° 272° (W) 17:01:21 .
XW-2D 10 Dec 16:57:23 17:00:49 34° 68° (ENE) 17:04:17 145.860 - 145.880
ITAMSAT 1 10 Dec 17:05:27 17:07:17 12° 275° (W) 17:09:08 435.822/435.867
ISS 10 Dec 17:09:41 17:12:55 53° 4° (N) 17:16:10 437.550
CUBESAT XI-V 10 Dec 17:11:41 17:16:23 66° 288° (WNW) 17:21:03 437.345
XW-2B 10 Dec 17:12:50 17:16:28 47° 71° (ENE) 17:20:09 145.730 - 145.750
KAITUO 1B 10 Dec 17:17:44 17:21:13 40° 70° (ENE) 17:24:46 145.475/437.950
BEESAT 10 Dec 17:18:16 17:22:15 27° 298° (WNW) 17:26:14 436.000
NUDT-PHONESAT 10 Dec 17:22:24 17:25:52 42° 71° (ENE) 17:29:24 437.300
XW-2F 10 Dec 17:28:59 17:32:43 69° 73° (ENE) 17:36:30 145.980 - 146.000
XW-2C 10 Dec 17:39:45 17:43:32 83° 259° (W) 17:47:22 145.795 - 145.815
MOZHAYETS 4 10 Dec 17:39:47 17:41:55 13° 304° (NW) 17:44:01
RS-15 10 Dec 17:43:54 17:56:08 62° 321° (NW) 18:08:08 29.354- 29.394
ITUPSAT 1 10 Dec 17:43:58 17:47:09 18° 302° (WNW) 17:50:21 437.325
STARS 10 Dec 17:44:30 17:48:09 25° 94° (E) 17:51:46 437.465
O/OREOS (USA 219) 10 Dec 17:49:20 17:52:53 22° 48° (NE) 17:56:25 437.305
SEEDS 10 Dec 17:51:15 17:54:39 24° 64° (ENE) 17:58:03 437.485
CUTE-I 10 Dec 17:53:33 17:58:56 81° 255° (WSW) 18:04:22 437.470
CUTE 1.7 + AOD 2 10 Dec 18:04:14 18:08:19 48° 71° (ENE) 18:12:27 437.475
CUBEBUG 2 10 Dec 18:04:58 18:08:41 31° 67° (ENE) 18:12:22 437.445
LilacSat-2 10 Dec 18:10:41 18:14:11 35° 263° (W) 18:17:44 437.200
UWE-3 10 Dec 18:14:50 18:18:08 23° 64° (ENE) 18:21:26 435.000/436.395/437.385
nSIGHT-1 10 Dec 18:21:04 18:24:18 85° 206° (SSW) 18:27:31 .
HO-68 10 Dec 18:23:00 18:30:12 87° 73° (ENE) 18:37:28 435.675
KKS-1 10 Dec 18:24:12 18:28:35 59° 289° (WNW) 18:32:56 437.445
AAUSAT CUBESAT 2 10 Dec 18:24:23 18:27:44 24° 64° (ENE) 18:31:06 437.432
DOVE 4 10 Dec 18:28:40 18:29:19 10° 277° (W) 18:29:58 437.250
SO-50 10 Dec 18:29:58 18:34:10 38° 320° (NW) 18:38:26 436.795
XW-2D 10 Dec 18:32:04 18:35:04 22° 267° (W) 18:38:05 145.860 - 145.880
ISS 10 Dec 18:46:14 18:49:32 73° 203° (SSW) 18:52:49 437.550
XW-2B 10 Dec 18:48:30 18:50:54 16° 269° (W) 18:53:19 145.730 - 145.750
ZACube-1 10 Dec 18:49:59 18:53:31 28° 66° (ENE) 18:57:04 437.345
PCSat 10 Dec 18:50:26 18:53:24 15° 104° (ESE) 18:56:22 145.827
CUBESAT XI-V 10 Dec 18:51:32 18:52:51 11° 307° (NW) 18:54:10 437.345
KAITUO 1B 10 Dec 18:52:42 18:55:22 18° 268° (W) 18:58:05 145.475/437.950
NUDT-PHONESAT 10 Dec 18:57:27 18:59:55 17° 269° (W) 19:02:26 437.300
STRAND 1 10 Dec 18:58:48 19:02:36 21° 91° (E) 19:06:23 437.568
XW-2F 10 Dec 19:06:03 19:07:18 11° 272° (W) 19:08:32 145.980 - 146.000
XW-2A 10 Dec 19:08:21 19:11:38 62° 75° (ENE) 19:14:59 145.665 - 145.685
Oscar 11 10 Dec 19:17:18 19:21:09 33° 67° (ENE) 19:25:02 .
STARS 10 Dec 19:20:32 19:24:36 39° 293° (WNW) 19:28:39 437.465
SEEDS 10 Dec 19:26:08 19:30:07 40° 263° (W) 19:34:09 437.485
AO-73 10 Dec 19:26:12 19:30:14 56° 72° (ENE) 19:34:18 145.935
O/OREOS (USA 219) 10 Dec 19:28:13 19:32:41 59° 249° (WSW) 19:37:05 437.305
CUTE-I 10 Dec 19:37:29 19:39:51 13° 274° (W) 19:42:13 437.470
CUTE 1.7 + AOD 2 10 Dec 19:41:17 19:44:24 20° 269° (W) 19:47:33 437.475
CUBEBUG 2 10 Dec 19:41:35 19:45:18 29° 265° (W) 19:48:59 437.445
UWE-3 10 Dec 19:50:29 19:54:25 39° 262° (W) 19:58:20 435.000/436.395/437.385
nSIGHT-1 10 Dec 19:57:46 20:00:10 19° 219° (SW) 20:02:33 .
AAUSAT CUBESAT 2 10 Dec 19:59:02 20:02:58 40° 263° (W) 20:06:57 437.432
RS-15 10 Dec 20:00:18 20:11:31 38° 353° (N) 20:22:21 29.354- 29.394
DELFI C3 10 Dec 20:08:50 20:12:04 24° 65° (ENE) 20:15:18 145.870
SO-50 10 Dec 20:13:24 20:15:52 14° 343° (NNW) 20:18:22 436.795
HO-68 10 Dec 20:13:36 20:18:51 21° 272° (W) 20:24:06 435.675
FO-29 10 Dec 20:17:48 20:24:33 39° 93° (E) 20:30:33 435.910
EO-88 10 Dec 20:21:08 20:23:19 15° 62° (ENE) 20:25:30 145.990 - 145.960
ISS 10 Dec 20:23:27 20:25:34 16° 222° (SW) 20:27:42 437.550
ZACube-1 10 Dec 20:26:01 20:29:44 32° 264° (W) 20:33:28 437.345
PCSat 10 Dec 20:30:33 20:35:58 84° 125° (SE) 20:41:26 145.827
STRAND 1 10 Dec 20:37:10 20:42:12 61° 289° (WNW) 20:47:13 437.568
Oscar 11 10 Dec 20:53:32 20:57:18 29° 265° (W) 21:01:06 .
BEESAT 3 10 Dec 20:54:49 20:57:32 18° 113° (ESE) 21:00:16 437.485
AO-73 10 Dec 21:04:17 21:06:50 16° 270° (W) 21:09:25 145.935
TIGRISAT 10 Dec 21:04:47 21:06:28 12° 87° (E) 21:08:09 435.000
UNISAT 6 10 Dec 21:06:21 21:08:35 14° 89° (E) 21:10:49 437.425
Max Valier Satellite 10 Dec 21:14:18 21:17:55 79° 77° (ENE) 21:21:37 145.860
BEESAT 2 10 Dec 21:25:39 21:26:45 11° 109° (ESE) 21:27:51 435.950
DELFI C3 10 Dec 21:42:57 21:46:38 36° 263° (W) 21:50:22 145.870
EO-88 10 Dec 21:53:02 21:56:34 51° 260° (W) 22:00:09 145.990 - 145.960
SO-50 10 Dec 21:56:21 21:58:16 12° 9° (N) 22:00:12 436.795
FO-29 10 Dec 22:02:44 22:09:46 50° 296° (WNW) 22:16:03 435.910
PCSat 10 Dec 22:15:33 22:20:02 25° 325° (NW) 22:24:31 145.827
RS-15 10 Dec 22:15:56 22:27:33 47° 26° (NNE) 22:38:33 29.354- 29.394
SPROUT 10 Dec 22:17:56 22:19:05 11° 55° (NE) 22:20:13 437.525
STRAND 1 10 Dec 22:18:45 22:20:24 11° 309° (NW) 22:22:02 437.568
ESTCUBE 1 10 Dec 22:19:04 22:23:14 38° 67° (ENE) 22:27:27 437.505/2401.250
BEESAT 3 10 Dec 22:30:42 22:34:40 61° 312° (NW) 22:38:39 437.485
LO-87 10 Dec 22:37:42 22:41:14 70° 75° (ENE) 22:44:46 145.935 - 145.965
VELOX 1 10 Dec 22:38:26 22:40:19 13° 55° (NE) 22:42:12 145.980
TIGRISAT 10 Dec 22:39:25 22:43:43 81° 284° (WNW) 22:48:05 435.000
UNISAT 6 10 Dec 22:41:29 22:45:47 71° 286° (WNW) 22:50:07 437.425
BEESAT 2 10 Dec 22:59:44 23:03:47 84° 125° (SE) 23:07:52 435.950
PRISM 10 Dec 23:05:50 23:09:58 66° 102° (ESE) 23:14:02 437.425
AIST 2D 10 Dec 23:20:50 23:24:10 36° 97° (E) 23:27:29 435.315
QB50P2 10 Dec 23:25:11 23:27:59 17° 91° (E) 23:30:47 145.880/145.840
SO-50 10 Dec 23:36:25 23:40:18 25° 33° (NNE) 23:44:13 436.795
DUCHIFAT 1 10 Dec 23:37:39 23:40:15 16° 90° (E) 23:42:51 145.980
AO-85 10 Dec 23:42:56 23:46:50 65° 124° (SE) 23:51:00 145.980
DX 1 10 Dec 23:47:25 23:49:47 14° 57° (ENE) 23:52:09 434.975-435.025
FO-29 10 Dec 23:49:39 23:53:01 14° 319° (NW) 23:56:15 435.910
SPROUT 10 Dec 23:49:58 23:54:13 77° 75° (ENE) 23:58:29 437.525
ESTCUBE 1 10 Dec 23:56:16 00:00:08 27° 266° (W) 00:04:01 437.505/2401.250
NANOSAT C BR1 11 Dec 00:00:42 00:04:26 30° 96° (E) 00:08:10 145.865
PCSat 11 Dec 00:03:18 00:05:26 12° 351° (N) 00:07:35 145.827
BEESAT 3 11 Dec 00:10:33 00:12:58 15° 333° (NNW) 00:15:23 437.485
VELOX 1 11 Dec 00:11:34 00:16:02 82° 74° (ENE) 00:20:32 145.980
EO-79 11 Dec 00:12:51 00:16:54 45° 99° (E) 00:20:56 145.935-145.965
TIGRISAT 11 Dec 00:18:17 00:19:43 11° 304° (NW) 00:21:09 435.000
UNISAT 6 11 Dec 00:21:08 00:21:43 10° 305° (NW) 00:22:17 437.425
RS-15 11 Dec 00:29:16 00:41:13 82° 236° (SW) 00:52:30 29.354- 29.394
POLYITAN 1 11 Dec 00:34:32 00:38:46 75° 104° (ESE) 00:42:59 437.675
BUGSAT 1 11 Dec 00:35:28 00:37:55 16° 90° (E) 00:40:24 437.445
BEESAT 2 11 Dec 00:38:58 00:42:01 20° 328° (NNW) 00:45:04 435.950
PRISM 11 Dec 00:42:15 00:44:45 16° 301° (WNW) 00:47:13 437.425
Oscar 19 11 Dec 00:49:32 00:52:43 16° 88° (E) 00:55:53 437.125/150
AIST 2D 11 Dec 00:54:32 00:57:06 19° 295° (WNW) 00:59:39 435.315
Gurwin Techsat 1B 11 Dec 00:57:24 01:00:12 14° 87° (E) 01:02:58 435.225
QB50P2 11 Dec 00:59:58 01:04:05 54° 289° (WNW) 01:08:13 145.880/145.840
50 SAT 11 Dec 01:12:01 01:15:12 88° 77° (ENE) 01:18:25 437.505
DUCHIFAT 1 11 Dec 01:12:09 01:16:17 58° 288° (WNW) 01:20:23 145.980
UKube-1 11 Dec 01:14:34 01:18:48 56° 71° (ENE) 01:23:03 .
BEESAT 11 Dec 01:15:36 01:17:53 14° 54° (NE) 01:20:11 436.000
SO-50 11 Dec 01:16:34 01:21:13 75° 234° (SW) 01:25:56 436.795
DX 1 11 Dec 01:20:58 01:25:22 83° 257° (WSW) 01:29:47 434.975-435.025
AO-85 11 Dec 01:24:20 01:27:39 23° 328° (NNW) 01:31:09 145.980
SPROUT 11 Dec 01:28:51 01:30:39 12° 272° (W) 01:32:27 437.525
MOZHAYETS 4 11 Dec 01:30:47 01:34:11 21° 61° (ENE) 01:37:36
NANOSAT C BR1 11 Dec 01:36:26 01:40:07 30° 294° (WNW) 01:43:47 145.865
YUBILEINY 11 Dec 01:37:10 01:40:17 12° 67° (ENE) 01:43:23 435.215
AO-91 11 Dec 01:37:23 01:40:41 31° 96° (E) 01:43:46 145.960
ITUPSAT 1 11 Dec 01:39:32 01:43:00 21° 59° (ENE) 01:46:29 437.325
PCSat 11 Dec 01:48:28 01:51:19 14° 18° (NNE) 01:54:09 145.827
EO-79 11 Dec 01:49:10 01:52:24 22° 297° (WNW) 01:55:36 145.935-145.965
VELOX 1 11 Dec 01:51:06 01:53:04 13° 272° (W) 01:55:03 145.980
BUGSAT 1 11 Dec 02:09:41 02:13:37 55° 288° (WNW) 02:17:34 437.445
POLYITAN 1 11 Dec 02:11:42 02:13:59 14° 302° (WNW) 02:16:18 437.675
Oscar 19 11 Dec 02:27:26 02:32:40 81° 287° (WNW) 02:37:52 437.125/150
Gurwin Techsat 1B 11 Dec 02:35:33 02:40:55 88° 102° (ESE) 02:46:14 435.225
CUBESAT XI-V 11 Dec 02:42:15 02:46:08 27° 63° (ENE) 02:50:03 437.345
RS-15 11 Dec 02:43:06 02:51:45 25° 260° (W) 03:00:07 29.354- 29.394
BEESAT 11 Dec 02:50:09 02:54:54 81° 73° (ENE) 02:59:41 436.000
AO-7 11 Dec 02:50:44 02:57:28 26° 91° (E) 03:04:08 .
UKube-1 11 Dec 02:52:14 02:55:09 18° 269° (W) 02:58:06 .
SO-50 11 Dec 02:59:16 03:00:54 12° 252° (WSW) 03:02:34 436.795
MOZHAYETS 4 11 Dec 03:06:32 03:11:00 54° 260° (W) 03:15:29
AO-85 11 Dec 03:08:24 03:09:39 11° 352° (N) 03:10:55 145.980
AO-91 11 Dec 03:14:13 03:17:01 21° 297° (WNW) 03:19:40 145.960
ITUPSAT 1 11 Dec 03:15:42 03:20:25 62° 258° (WSW) 03:25:09 437.325
YUBILEINY 11 Dec 03:26:27 03:34:58 57° 90° (E) 03:43:33 435.215
BEESAT 3 11 Dec 03:29:44 03:31:30 13° 22° (NNE) 03:33:16 437.485
ITAMSAT 1 11 Dec 03:30:48 03:35:12 27° 94° (E) 03:39:33 435.822/435.867
PCSat 11 Dec 03:31:21 03:36:21 36° 42° (NE) 03:41:20 145.827
M-CUBED/EXP-1 PRIME 11 Dec 03:43:14 03:47:34 38° 103° (ESE) 03:51:42 437.505
KKS-1 11 Dec 03:50:07 03:53:54 28° 64° (ENE) 03:57:41 437.445
BEESAT 2 11 Dec 03:59:45 04:00:51 11° 16° (NNE) 04:01:57 435.950
Oscar 19 11 Dec 04:08:18 04:11:11 15° 306° (NW) 04:14:06 437.125/150
Gurwin Techsat 1B 11 Dec 04:16:45 04:20:10 18° 305° (NW) 04:23:35 435.225
CUBESAT XI-V 11 Dec 04:18:53 04:23:19 43° 262° (W) 04:27:47 437.345
BEESAT 11 Dec 04:30:46 04:33:17 14° 272° (W) 04:35:49 436.000
DOVE 4 11 Dec 04:41:07 04:45:00 25° 92° (E) 04:48:41 437.250
AO-7 11 Dec 04:42:44 04:51:09 83° 293° (WNW) 04:59:32 .
STARS 11 Dec 04:44:31 04:48:36 38° 67° (ENE) 04:52:40 437.465
AO-85 11 Dec 04:49:45 04:52:00 13° 18° (NNE) 04:54:19 145.980
BEESAT 3 11 Dec 05:06:15 05:10:02 42° 44° (NE) 05:13:46 437.485
ITAMSAT 1 11 Dec 05:09:54 05:14:54 48° 292° (WNW) 05:19:50 435.822/435.867
PCSat 11 Dec 05:14:42 05:19:58 51° 243° (WSW) 05:25:10 145.827
M-CUBED/EXP-1 PRIME 11 Dec 05:17:43 05:21:48 31° 301° (WNW) 05:25:44 437.505
YUBILEINY 11 Dec 05:23:59 05:32:08 40° 293° (WNW) 05:40:23 435.215
KKS-1 11 Dec 05:26:08 05:30:19 38° 262° (W) 05:34:31 437.445
BEESAT 2 11 Dec 05:36:13 05:39:50 30° 39° (NE) 05:43:23 435.950
LilacSat-2 11 Dec 05:39:57 05:42:46 19° 92° (E) 05:45:34 437.200
HO-68 11 Dec 05:48:46 05:51:47 13° 83° (E) 05:54:47 435.675
XW-2D 11 Dec 05:59:30 06:02:54 28° 95° (E) 06:06:15 145.860 - 145.880
CUTE-I 11 Dec 06:06:44 06:11:24 30° 94° (E) 06:16:01 437.470
XW-2B 11 Dec 06:15:03 06:18:42 40° 98° (E) 06:22:20 145.730 - 145.750
STRAND 1 11 Dec 06:18:14 06:23:05 44° 67° (ENE) 06:27:57 437.568
KAITUO 1B 11 Dec 06:18:17 06:21:44 32° 96° (E) 06:25:10 145.475/437.950
DOVE 4 11 Dec 06:18:27 06:22:53 41° 292° (WNW) 06:27:02 437.250
STARS 11 Dec 06:21:18 06:25:02 26° 265° (W) 06:28:45 437.465
NUDT-PHONESAT 11 Dec 06:21:50 06:25:16 33° 97° (E) 06:28:41 437.300
AO-85 11 Dec 06:29:25 06:33:40 35° 40° (NE) 06:38:13 145.980
XW-2F 11 Dec 06:30:41 06:34:29 57° 101° (E) 06:38:15 145.980 - 146.000
FO-29 11 Dec 06:32:59 06:39:41 33° 57° (ENE) 06:46:25 435.910
AO-7 11 Dec 06:36:22 06:42:52 26° 314° (NW) 06:49:22 .
XW-2C 11 Dec 06:42:03 06:45:56 83° 103° (ESE) 06:49:47 145.795 - 145.815
BEESAT 3 11 Dec 06:44:05 06:47:24 26° 243° (WSW) 06:50:38 437.485
SEEDS 11 Dec 07:05:44 07:09:17 25° 93° (E) 07:12:48 437.485
LilacSat-2 11 Dec 07:13:32 07:17:13 42° 290° (WNW) 07:20:54 437.200
BEESAT 2 11 Dec 07:13:50 07:17:40 42° 239° (WSW) 07:21:26 435.950
CUTE 1.7 + AOD 2 11 Dec 07:20:22 07:24:37 55° 100° (E) 07:28:49 437.475
CUBEBUG 2 11 Dec 07:27:09 07:31:06 39° 97° (E) 07:35:08 437.445
YUBILEINY 11 Dec 07:30:21 07:32:13 11° 321° (NW) 07:34:04 435.215
XW-2D 11 Dec 07:33:42 07:37:00 27° 293° (WNW) 07:40:17 145.860 - 145.880
HO-68 11 Dec 07:33:48 07:40:57 65° 103° (ESE) 07:48:03 435.675
UWE-3 11 Dec 07:35:22 07:39:04 28° 95° (E) 07:42:50 435.000/436.395/437.385
AAUSAT CUBESAT 2 11 Dec 07:36:58 07:40:23 24° 93° (E) 07:43:46 437.432
NO-84 11 Dec 07:38:56 07:40:24 13° 128° (SE) 07:41:55 435.350 FM
CUTE-I 11 Dec 07:46:32 07:51:38 46° 293° (WNW) 07:56:40 437.470
XW-2B 11 Dec 07:49:45 07:52:38 21° 296° (WNW) 07:55:31 145.730 - 145.750
KAITUO 1B 11 Dec 07:52:29 07:55:35 24° 294° (WNW) 07:58:40 145.475/437.950
NUDT-PHONESAT 11 Dec 07:55:57 07:58:57 23° 294° (WNW) 08:01:56 437.300
STRAND 1 11 Dec 07:58:00 08:02:26 29° 266° (W) 08:06:52 437.568
XW-2A 11 Dec 07:58:16 08:01:28 36° 98° (E) 08:04:39 145.665 - 145.685
XW-2F 11 Dec 08:05:51 08:08:10 15° 299° (WNW) 08:10:28 145.980 - 146.000
TIGRISAT 11 Dec 08:06:52 08:09:49 18° 61° (ENE) 08:12:44 435.000
UNISAT 6 11 Dec 08:08:45 08:11:56 21° 62° (ENE) 08:15:06 437.425
ZACube-1 11 Dec 08:09:15 08:13:11 34° 96° (E) 08:17:11 437.345
AO-85 11 Dec 08:09:42 08:14:14 47° 238° (WSW) 08:19:05 145.980
FO-29 11 Dec 08:16:25 08:24:07 72° 258° (WSW) 08:32:01 435.910
XW-2C 11 Dec 08:18:08 08:19:30 12° 301° (WNW) 08:20:52 145.795 - 145.815
PRISM 11 Dec 08:26:44 08:27:57 11° 55° (NE) 08:29:09 437.425
Oscar 11 11 Dec 08:35:51 08:39:56 38° 97° (E) 08:44:00 .
SEEDS 11 Dec 08:41:07 08:45:03 37° 292° (WNW) 08:48:57 437.485
AO-73 11 Dec 08:45:29 08:49:47 70° 102° (ESE) 08:54:09 145.935
CUTE 1.7 + AOD 2 11 Dec 08:57:01 09:00:04 19° 298° (WNW) 09:03:06 437.475
CUBEBUG 2 11 Dec 09:04:10 09:07:34 24° 295° (WNW) 09:11:01 437.445
UWE-3 11 Dec 09:11:45 09:15:33 33° 292° (WNW) 09:19:26 435.000/436.395/437.385
AAUSAT CUBESAT 2 11 Dec 09:12:04 09:15:57 38° 291° (WNW) 09:19:48 437.432
NO-84 11 Dec 09:13:50 09:17:02 82° 150° (SSE) 09:20:32 435.350 FM
DELFI C3 11 Dec 09:15:43 09:18:46 21° 92° (E) 09:21:47 145.870
EO-88 11 Dec 09:19:36 09:20:18 10° 88° (E) 09:20:59 145.990 - 145.960
HO-68 11 Dec 09:22:04 09:28:16 33° 304° (NW) 09:34:27 435.675
XW-2A 11 Dec 09:31:33 09:33:55 18° 296° (WNW) 09:36:18 145.665 - 145.685
TIGRISAT 11 Dec 09:41:52 09:46:07 57° 259° (W) 09:50:21 435.000
O/OREOS (USA 219) 11 Dec 09:44:04 09:48:38 73° 114° (ESE) 09:53:13 437.305
UNISAT 6 11 Dec 09:44:09 09:48:21 49° 260° (W) 09:52:31 437.425
ZACube-1 11 Dec 09:45:43 09:49:23 28° 294° (WNW) 09:53:07 437.345
POLYITAN 1 11 Dec 09:57:45 09:59:35 13° 57° (ENE) 10:01:24 437.675
PRISM 11 Dec 09:58:20 10:02:29 80° 75° (ENE) 10:06:40 437.425
AIST 2D 11 Dec 09:58:47 10:01:43 25° 67° (ENE) 10:04:41 435.315
FO-29 11 Dec 10:05:37 10:10:26 17° 278° (W) 10:15:19 435.910
Oscar 11 11 Dec 10:12:16 10:15:55 26° 295° (WNW) 10:19:34 .
Max Valier Satellite 11 Dec 10:13:31 10:17:14 61° 101° (E) 10:20:56 145.860
QB50P2 11 Dec 10:21:23 10:24:39 22° 63° (ENE) 10:27:55 145.880/145.840
AO-73 11 Dec 10:22:58 10:25:32 16° 300° (WNW) 10:28:09 145.935
DUCHIFAT 1 11 Dec 10:33:00 10:36:07 21° 62° (ENE) 10:39:14 145.980
DELFI C3 11 Dec 10:49:57 10:53:39 39° 291° (WNW) 10:57:19 145.870
EO-88 11 Dec 10:50:43 10:54:23 71° 286° (WNW) 10:58:03 145.990 - 145.960
NO-84 11 Dec 10:51:27 10:54:35 34° 350° (N) 10:57:59 435.350 FM
NANOSAT C BR1 11 Dec 10:56:16 11:00:08 38° 68° (ENE) 11:04:00 145.865
EO-79 11 Dec 11:08:41 11:12:47 56° 72° (ENE) 11:16:54 145.935-145.965
O/OREOS (USA 219) 11 Dec 11:25:15 11:28:34 19° 314° (NW) 11:31:54 437.305
BUGSAT 1 11 Dec 11:28:47 11:31:45 20° 62° (ENE) 11:34:42 437.445
POLYITAN 1 11 Dec 11:30:31 11:34:43 87° 256° (WSW) 11:38:57 437.675
AIST 2D 11 Dec 11:31:52 11:34:50 25° 266° (W) 11:37:50 435.315
LO-87 11 Dec 11:33:32 11:36:58 47° 99° (E) 11:40:24 145.935 - 145.965
PRISM 11 Dec 11:36:47 11:38:18 12° 272° (W) 11:39:50 437.425
ESTCUBE 1 11 Dec 11:43:35 11:48:00 47° 99° (E) 11:52:22 437.505/2401.250
Max Valier Satellite 11 Dec 11:48:38 11:50:36 14° 299° (WNW) 11:52:34 145.860
QB50P2 11 Dec 11:56:11 12:00:12 43° 261° (W) 12:04:13 145.880/145.840
VELOX 1 11 Dec 11:59:32 12:01:01 11° 87° (E) 12:02:30 145.980
AO-7 11 Dec 12:05:55 12:10:48 17° 36° (NE) 12:15:41 .
DUCHIFAT 1 11 Dec 12:07:28 12:11:29 46° 261° (W) 12:15:32 145.980
Oscar 19 11 Dec 12:09:46 12:14:24 35° 64° (ENE) 12:19:05 437.125/150
Gurwin Techsat 1B 11 Dec 12:21:40 12:26:26 35° 64° (ENE) 12:31:13 435.225
NO-84 11 Dec 12:29:08 12:32:28 35° 11° (N) 12:36:03 435.350 FM
NANOSAT C BR1 11 Dec 12:32:33 12:35:57 24° 266° (W) 12:39:22 145.865
AO-91 11 Dec 12:36:51 12:41:41 53° 72° (ENE) 12:46:05 145.960
nSIGHT-1 11 Dec 12:37:51 12:39:35 14° 137° (SE) 12:41:18 .
EO-79 11 Dec 12:46:13 12:48:54 16° 270° (W) 12:51:36 145.935-145.965
M-CUBED/EXP-1 PRIME 11 Dec 12:59:52 13:02:21 15° 49° (NE) 13:04:53 437.505
BUGSAT 1 11 Dec 13:02:55 13:06:50 46° 260° (W) 13:10:44 437.445
ISS 11 Dec 13:05:28 13:07:50 19° 140° (SE) 13:10:13 437.550
DX 1 11 Dec 13:06:42 13:08:39 13° 88° (E) 13:10:35 434.975-435.025
SPROUT 11 Dec 13:07:01 13:11:18 85° 106° (ESE) 13:15:32 437.525
LO-87 11 Dec 13:07:55 13:10:01 15° 298° (WNW) 13:12:08 145.935 - 145.965
ITAMSAT 1 11 Dec 13:17:07 13:19:07 12° 50° (NE) 13:21:07 435.822/435.867
ESTCUBE 1 11 Dec 13:20:54 13:24:33 24° 297° (WNW) 13:28:10 437.505/2401.250
YUBILEINY 11 Dec 13:31:24 13:39:24 36° 64° (ENE) 13:47:17 435.215
VELOX 1 11 Dec 13:33:39 13:38:07 88° 291° (WNW) 13:42:31 145.980
Oscar 19 11 Dec 13:48:58 13:53:42 37° 263° (W) 13:58:30 437.125/150
AO-7 11 Dec 13:53:49 14:01:45 52° 59° (ENE) 14:09:45 .
50 SAT 11 Dec 13:56:13 13:59:11 36° 98° (E) 14:02:08 437.505
Gurwin Techsat 1B 11 Dec 14:01:19 14:06:19 40° 263° (W) 14:11:20 435.225
NO-84 11 Dec 14:06:18 14:10:04 89° 32° (NNE) 14:14:07 435.350 FM
nSIGHT-1 11 Dec 14:12:06 14:15:17 65° 155° (SSE) 14:18:30 .
AO-91 11 Dec 14:14:31 14:18:19 22° 267° (W) 14:21:55 145.960
M-CUBED/EXP-1 PRIME 11 Dec 14:31:40 14:35:59 85° 65° (ENE) 14:40:34 437.505
UKube-1 11 Dec 14:33:07 14:37:24 56° 101° (ESE) 14:41:37 .
ISS 11 Dec 14:40:39 14:43:56 81° 158° (SSE) 14:47:15 437.550
DX 1 11 Dec 14:41:01 14:45:24 79° 286° (WNW) 14:49:44 434.975-435.025
SPROUT 11 Dec 14:44:32 14:46:34 13° 302° (WNW) 14:48:35 437.525
BEESAT 11 Dec 14:47:21 14:50:04 15° 89° (E) 14:52:45 436.000
ITAMSAT 1 11 Dec 14:52:27 14:57:36 63° 70° (ENE) 15:02:46 435.822/435.867
RS-15 11 Dec 14:56:28 15:07:47 46° 110° (ESE) 15:19:00 29.354- 29.394
MOZHAYETS 4 11 Dec 14:57:28 15:01:21 26° 94° (E) 15:05:13
VELOX 1 11 Dec 15:11:48 15:13:52 13° 304° (NW) 15:15:55 145.980
ITUPSAT 1 11 Dec 15:12:18 15:16:13 24° 93° (E) 15:20:06 437.325
YUBILEINY 11 Dec 15:28:06 15:36:48 64° 268° (W) 15:45:26 435.215
50 SAT 11 Dec 15:28:57 15:30:53 15° 296° (WNW) 15:32:48 437.505
SO-50 11 Dec 15:37:14 15:39:05 12° 109° (ESE) 15:40:56 436.795
NO-84 11 Dec 15:44:07 15:47:02 20° 227° (SW) 15:50:03 435.350 FM
AO-7 11 Dec 15:46:50 15:54:40 45° 261° (W) 16:02:37 .
nSIGHT-1 11 Dec 15:48:25 15:51:35 53° 354° (N) 15:54:46 .
DOVE 4 11 Dec 15:49:08 15:54:07 44° 68° (ENE) 15:59:00 437.250
CUTE-I 11 Dec 15:55:52 15:58:32 14° 52° (NE) 16:01:12 437.470
M-CUBED/EXP-1 PRIME 11 Dec 16:09:01 16:10:59 13° 268° (W) 16:13:01 437.505
UKube-1 11 Dec 16:09:58 16:13:02 19° 300° (WNW) 16:16:04 .
CUBESAT XI-V 11 Dec 16:10:57 16:15:18 35° 96° (E) 16:19:37 437.345
ISS 11 Dec 16:17:20 16:20:35 52° 358° (N) 16:23:49 437.550
DX 1 11 Dec 16:19:18 16:20:49 12° 306° (NW) 16:22:22 434.975-435.025
HO-68 11 Dec 16:21:59 16:26:44 19° 47° (NE) 16:31:30 435.675
BEESAT 11 Dec 16:23:37 16:28:24 77° 287° (WNW) 16:33:09 436.000
LilacSat-2 11 Dec 16:25:55 16:28:31 18° 63° (ENE) 16:31:08 437.200
ITAMSAT 1 11 Dec 16:33:36 16:37:30 21° 269° (W) 16:41:25 435.822/435.867
MOZHAYETS 4 11 Dec 16:34:18 16:38:39 41° 292° (WNW) 16:42:58
